User: anonymous   Login
Location: Unspecified
(0.0000°N, 0.0000°E)
Time: 00:15:38
(UTC+00:00)
Language:

SWISSCUBE - Orbit

View from above orbital plane
View from above orbital plane
View from above satellite
View from above satellite

Ground track
Ground track

The orbit data is extracted from the following two-line orbital elements,

1 35932U 09051B   16210.58028331  .00000156  00000-0  46470-4 0  9994
2 35932  98.4535 338.1699 0008236 157.8427 202.3128 14.55844897363230
Epoch (UTC): 28 July 2016 13:55:36
Eccentricity: 0.0008236
inclination: 98.4535°
perigee height: 701 km
apogee height: 712 km
right ascension of ascending node: 338.1699°
argument of perigee: 157.8427°
revolutions per day: 14.55844897
mean anomaly at epoch: 202.3128°
orbit number at epoch: 36323

The dashed part of the orbit path shows where the satellite is in the earth's shadow,  

DLR